Weather History for KLWD - May, 2013

Change the Weather History Date:

Saturday, May 18, 2013

  Actual Average Record
Temperature  
Mean Temperature 72 °F 62 °F  
Max Temperature 83 °F 72 °F 88 °F (1964)
Min Temperature 61 °F 52 °F 37 °F (2002)
Degree Days  
Heating Degree Days 0 5  
Month to date heating degree days 157 123  
Since 1 July heating degree days 6037 6018  
Cooling Degree Days 7 2  
Month to date cooling degree days 31 16  
Year to date cooling degree days 43 23  
Growing Degree Days 22 (Base 50)    
Moisture  
Dew Point 61 °F    
Average Humidity 71    
Maximum Humidity 90    
Minimum Humidity 51    
Precipitation  
Precipitation 0.00 in 0.17 in 1.59 in (1987)
Month to date precipitation 2.22 2.96  
Sea Level Pressure  
Sea Level Pressure 29.87 in    
Wind  
Wind Speed 8 mph (SE)    
Max Wind Speed 16 mph    
Max Gust Speed 23 mph    
Visibility 10 miles    
Events      
T = Trace of Precipitation, MM = Missing Value Source: NWS Daily Summary

Daily Weather History Graph

Daily Weather History Graph

Search for Another Location

Airport or City:

Trip Planner

Search our weather history database for the weather conditions in past years. The results will help you decide how hot, cold, wet, or windy it might be!

Date:

Astronomy

May. 18, 2013 Rise Set
Actual Time 5:55 AM CDT 8:28 PM CDT
Civil Twilight 5:24 AM CDT 9:00 PM CDT
Nautical Twilight 4:45 AM CDT 9:39 PM CDT
Astronomical Twilight 4:01 AM CDT 10:23 PM CDT
Moon 1:30 PM CDT (5/18) 1:50 AM CDT (5/18)
Length of Visible Light 15h 35m
Length of Day
14h 33m
First Quarter, 55% of the Moon is Illuminated
May 18
First Quarter
May 24
Full
May 31
Last Quarter
Jun 8
New
Jun 16
First Quarter

Hourly Weather History & Observations

Time (CDT) Temp. Heat Index Dew Point Humidity Pressure Visibility Wind Dir Wind Speed Gust Speed Precip Events Conditions
12:53 AM 64.9 °F - 57.9 °F 78% 29.93 in 10.0 mi SE 4.6 mph - N/A   Clear
1:53 AM 64.0 °F - 57.9 °F 80% 29.93 in 10.0 mi SE 4.6 mph - N/A   Clear
2:53 AM 64.0 °F - 57.9 °F 80% 29.92 in 10.0 mi SE 5.8 mph - N/A   Clear
3:53 AM 63.0 °F - 57.9 °F 84% 29.92 in 10.0 mi SE 3.5 mph - N/A   Clear
4:53 AM 62.1 °F - 57.9 °F 86% 29.91 in 10.0 mi SE 4.6 mph - N/A   Mostly Cloudy
5:53 AM 62.1 °F - 57.9 °F 86% 29.91 in 10.0 mi ESE 3.5 mph - N/A   Clear
6:53 AM 63.0 °F - 59.0 °F 87% 29.92 in 10.0 mi SE 5.8 mph - N/A   Clear
7:53 AM 64.9 °F - 61.0 °F 87% 29.93 in 10.0 mi SSE 6.9 mph - N/A   Clear
8:53 AM 70.0 °F - 63.0 °F 78% 29.93 in 10.0 mi SSE 8.1 mph - N/A   Clear
9:53 AM 73.9 °F - 64.0 °F 71% 29.92 in 10.0 mi SSE 8.1 mph - N/A   Clear
10:53 AM 75.9 °F - 63.0 °F 64% 29.91 in 10.0 mi SSE 9.2 mph - N/A   Mostly Cloudy
11:53 AM 77.0 °F - 62.1 °F 60% 29.91 in 10.0 mi SE 8.1 mph - N/A   Mostly Cloudy
12:53 PM 79.0 °F - 61.0 °F 54% 29.89 in 10.0 mi SSE 11.5 mph - N/A   Scattered Clouds
2:53 PM 81.0 °F 81.9 °F 62.1 °F 52% 29.85 in 10.0 mi SSE 13.8 mph 21.9 mph N/A   Partly Cloudy
3:53 PM 81.0 °F 81.9 °F 62.1 °F 52% 29.84 in 10.0 mi SSE 12.7 mph 23.0 mph N/A   Scattered Clouds
4:53 PM 81.0 °F 81.9 °F 62.1 °F 52% 29.84 in 10.0 mi South 9.2 mph 19.6 mph N/A   Scattered Clouds
5:53 PM 81.0 °F 82.2 °F 63.0 °F 54% 29.83 in 10.0 mi SE 8.1 mph - N/A   Partly Cloudy
6:53 PM 80.1 °F 81.7 °F 64.0 °F 58% 29.79 in 10.0 mi SE 8.1 mph - N/A   Clear
7:53 PM 78.1 °F - 63.0 °F 60% 29.78 in 10.0 mi ESE 5.8 mph - N/A   Mostly Cloudy
8:53 PM 75.0 °F - 63.0 °F 66% 29.78 in 10.0 mi ESE 5.8 mph - N/A   Clear
9:53 PM 73.0 °F - 63.0 °F 71% 29.77 in 10.0 mi ESE 4.6 mph - N/A   Clear
10:53 PM 72.0 °F - 63.0 °F 73% 29.75 in 10.0 mi ESE 5.8 mph - N/A   Clear
11:53 PM 72.0 °F - 63.0 °F 73% 29.77 in 10.0 mi SE 9.2 mph - N/A   Clear